Theta_e
300 302 304 305 305 306 307 308 308 312 325 331 334 334 341 336 332 332 332 330 328 326 321 318 328 313 311 312 312 312 312 312 312 311 310 309 308 306 306 311 314 315 315
298 299 300 303 305 305 305 306 307 307 310 321 333 336 342 330 330 331 330 328 328 326 325 320 323 312 311 312 312 313 313 313 311 309 308 307 306 305 304 304 307 308 308
299 300 300 300 301 304 305 305 306 307 307 312 327 339 341 343 331 330 330 328 330 328 325 315 311 310 311 312 313 313 314 312 310 308 307 306 304 303 303 303 303 303 303
297 298 299 300 300 301 304 305 306 306 307 308 324 337 339 340 337 333 333 329 332 320 316 311 310 311 312 314 314 314 313 311 310 310 307 304 304 303 303 303 304 304 304
297 298 298 299 301 301 302 305 307 307 307 308 321 330 336 338 335 332 332 331 328 315 316 316 313 314 314 314 314 314 311 310 310 309 306 304 304 304 304 304 303 303 303
297 298 298 299 300 302 302 304 306 308 308 309 324 328 333 335 332 332 330 326 318 317 317 315 315 315 314 313 313 312 311 310 309 307 305 304 303 304 303 303 302 302 301
296 298 298 298 299 301 303 305 308 312 311 310 325 328 330 330 330 326 320 319 318 317 316 316 315 314 312 313 313 311 309 309 307 306 305 303 303 303 302 302 302 302 301
297 296 297 297 299 300 302 305 312 318 314 318 323 326 327 329 329 322 319 320 318 316 316 315 313 312 312 312 311 310 308 307 306 305 304 303 303 303 302 302 302 302 301
297 297 297 298 299 299 302 303 308 315 318 323 323 323 326 322 319 318 320 318 316 314 313 313 311 311 312 311 310 309 307 306 305 304 304 303 302 302 302 302 302 301 300
296 297 297 298 298 298 299 301 301 303 304 308 309 310 309 317 317 317 316 315 314 313 310 310 310 312 310 309 307 307 306 305 304 303 303 302 302 301 301 301 300 300 300
296 297 297 298 297 298 299 298 298 298 299 298 299 304 307 307 310 310 312 312 311 310 310 309 308 308 307 305 305 304 303 303 303 302 302 301 300 300 300 299 299 299 300
295 296 298 298 298 297 298 298 298 298 297 299 297 298 301 301 302 305 306 308 308 308 306 306 304 304 303 302 302 302 301 301 300 299 299 299 299 298 298 298 299 299 299
295 296 297 297 298 297 297 297 296 297 297 296 295 296 297 300 300 302 304 305 306 306 305 303 302 301 301 300 299 299 299 299 299 298 298 298 297 296 297 297 297 298 299
295 295 296 297 297 297 297 297 296 296 295 295 295 295 296 297 299 300 301 301 300 300 300 300 299 299 299 299 299 299 298 298 298 297 297 297 296 296 297 297 297 298 299
294 294 295 296 296 297 296 296 295 294 294 294 294 294 295 295 295 296 298 298 298 298 298 297 297 298 298 298 298 298 298 297 296 296 296 295 296 296 296 297 297 297 298
294 294 294 295 295 296 296 296 295 294 294 293 292 292 292 293 294 294 295 294 295 295 296 296 296 297 297 297 297 297 296 296 296 295 295 295 295 295 295 296 297 297 297
293 293 293 294 294 294 295 296 296 294 293 292 291 291 291 292 293 293 293 293 293 294 295 295 295 295 296 295 296 296 296 295 295 295 295 295 295 295 295 296 296 296 296
293 292 292 293 293 293 293 295 295 294 293 292 291 290 290 291 291 292 292 292 293 292 292 293 293 293 294 294 294 294 294 295 295 295 295 295 295 294 295 295 295 296 296
292 291 291 291 291 291 292 292 293 292 292 291 290 290 289 290 291 291 290 291 291 291 291 291 292 292 292 292 293 293 293 294 293 293 294 294 294 294 294 295 295 297 296
291 290 290 290 290 289 289 290 290 290 290 290 289 289 289 288 289 289 289 289 289 290 290 290 290 290 291 291 291 291 292 292 292 292 292 292 293 293 294 294 295 295 296
293 290 289 290 290 290 289 289 288 287 288 289 289 288 288 288 288 288 288 288 289 290 289 289 290 289 290 290 290 290 291 290 290 290 291 291 292 292 293 293 294 295 295
295 292 289 289 290 290 290 289 288 287 286 286 286 287 287 287 287 286 285 286 288 289 289 287 287 287 289 289 289 289 289 290 290 290 290 290 290 291 291 292 293 294 294
295 294 291 290 289 289 290 290 288 287 286 284 284 285 286 285 285 284 284 285 289 289 290 289 288 288 288 288 288 288 289 289 289 289 290 290 290 290 290 291 292 294 294
296 295 293 291 288 289 289 290 289 287 285 284 283 284 284 284 284 284 284 287 289 289 289 288 288 288 288 288 288 288 288 289 288 288 289 290 290 290 290 291 292 292 293
296 295 293 292 291 288 288 288 288 286 284 284 284 284 285 285 285 285 285 289 290 290 290 289 289 288 288 288 287 288 288 289 290 290 290 291 290 290 290 291 292 292 292
296 295 293 292 291 289 288 289 288 286 284 283 283 284 284 284 284 284 286 290 290 290 290 290 289 289 289 290 289 289 287 288 290 290 290 291 291 292 291 291 291 291 292
Wind_Speed
38 33 32 34 39 41 41 40 39 37 40 38 38 46 45 44 45 44 40 33 44 47 33 26 19 26 24 21 18 15 13 12 12 12 13 17 19 20 19 20 21 22 23
44 45 44 33 35 40 45 44 43 42 39 41 38 46 48 40 41 46 42 33 36 42 37 30 28 30 27 22 18 16 13 12 12 13 15 17 20 21 20 22 25 26 28
45 45 47 48 46 39 42 45 47 43 41 41 37 38 43 46 44 44 51 46 40 47 41 33 31 31 27 22 18 15 14 14 14 14 15 16 17 19 19 19 21 23 22
46 44 44 46 49 48 45 44 47 47 41 41 40 35 38 49 48 41 44 49 39 42 36 32 30 27 26 22 18 15 15 14 13 14 14 13 14 14 16 19 19 19 19
46 46 45 45 45 47 46 46 45 48 43 37 39 40 46 51 52 50 50 39 42 43 32 33 27 26 20 18 16 15 14 12 12 13 12 12 13 14 14 16 21 21 19
48 47 49 47 45 45 44 43 45 45 43 38 36 45 51 52 53 52 45 43 46 38 35 31 26 22 20 17 15 14 13 11 11 11 11 13 15 14 14 15 18 22 21
48 47 50 46 46 43 41 40 44 39 38 35 32 46 52 53 52 46 40 43 40 36 34 31 25 21 17 14 13 12 10 10 11 11 13 13 14 15 14 16 18 21 21
44 47 56 50 48 42 40 37 39 31 29 27 33 45 52 52 49 39 39 38 36 34 30 25 22 20 16 12 12 12 11 11 12 13 15 14 15 16 16 19 20 24 22
45 49 54 56 47 42 40 39 28 18 16 27 40 47 57 44 42 43 41 43 39 32 26 22 20 16 12 14 15 13 13 13 13 15 16 17 17 18 20 23 22 24 21
42 43 48 55 53 46 41 39 29 22 22 21 28 35 36 48 47 45 48 41 35 28 25 17 16 14 16 16 16 14 14 14 15 15 17 19 22 24 25 26 24 21 14
36 41 40 50 52 53 39 38 32 35 39 39 36 35 39 34 41 34 38 34 27 23 16 17 16 13 13 12 12 12 12 14 16 18 18 16 15 16 15 12 12 13 12
33 38 39 35 48 49 47 40 40 40 37 40 36 38 43 38 35 31 26 26 21 17 12 7 6 6 7 10 13 14 14 13 11 9 9 9 11 13 11 10 10 11 14
33 32 33 34 32 37 44 41 41 42 43 42 36 35 36 34 29 27 22 18 13 7 4 2 4 6 7 9 8 5 4 6 8 8 8 8 11 13 13 12 11 11 12
29 32 28 27 27 27 30 34 37 41 41 41 38 37 37 35 31 24 18 15 13 8 4 2 4 5 6 6 3 1 3 8 12 11 11 11 12 11 10 11 11 8 9
29 28 27 27 25 22 22 26 30 32 35 35 34 33 35 33 26 20 18 15 14 10 8 5 6 6 4 3 3 4 7 11 12 9 7 7 9 9 9 10 10 10 9
28 28 26 25 25 23 17 15 21 25 28 31 33 32 29 26 21 18 17 15 14 11 7 6 4 2 1 4 4 7 9 11 9 8 8 9 11 11 9 9 10 10 10
27 26 25 23 23 23 20 12 14 19 24 28 29 30 29 25 22 19 15 11 9 8 7 6 3 2 4 7 8 9 9 9 9 8 10 12 12 12 12 11 11 10 11
27 26 23 22 21 21 21 14 15 19 25 27 28 30 29 26 24 22 18 12 11 9 7 5 4 6 8 10 10 10 10 11 11 12 13 12 11 12 10 9 9 9 10
29 27 23 22 21 18 17 17 15 16 20 24 25 25 26 24 23 20 17 17 14 10 7 6 6 7 9 9 10 10 11 13 14 14 14 13 11 13 12 11 10 9 8
29 26 24 24 25 20 17 16 16 16 17 19 23 24 23 22 20 18 18 19 19 16 11 8 7 10 10 11 11 11 11 13 14 14 14 13 11 11 10 11 9 8 9
33 28 25 21 23 24 22 23 23 20 17 17 18 19 19 19 19 20 20 21 22 20 18 16 13 12 12 12 12 13 14 15 15 14 11 11 10 10 10 10 9 10 10
29 30 28 23 18 19 20 21 24 24 20 20 18 16 16 16 16 18 18 19 20 20 18 16 15 15 15 15 15 17 16 14 14 13 12 12 11 10 10 9 9 9 8
28 31 27 29 21 17 18 19 24 28 24 25 23 22 22 21 21 21 21 22 22 22 22 20 19 17 15 13 16 15 14 13 13 13 13 12 12 11 10 11 9 7 6
27 31 30 29 28 22 20 20 22 28 24 25 25 23 22 22 23 24 25 26 25 25 23 19 19 17 15 13 13 14 16 18 16 15 15 14 14 15 10 9 9 9 8
23 28 28 27 30 26 25 21 22 27 26 27 27 26 25 25 25 26 27 27 27 28 26 22 19 17 16 15 15 17 20 20 17 16 16 15 15 16 13 14 12 12 12
21 27 25 26 29 27 24 20 23 27 27 26 26 25 25 25 26 27 28 28 29 29 25 21 19 18 18 17 16 17 20 21 20 18 18 18 17 16 15 14 17 17 14
Wind_Direction
349 341 322 308 302 296 289 282 279 274 268 274 279 273 281 269 262 241 238 232 257 239 222 215 223 229 222 218 216 220 228 233 240 252 265 277 282 283 281 278 279 279 279
346 344 341 325 307 297 295 288 280 276 269 266 264 265 277 250 254 238 229 223 233 221 219 219 214 214 214 214 214 216 226 238 253 263 271 274 279 281 278 274 278 284 286
348 345 342 336 327 311 297 289 286 280 274 265 259 256 264 260 247 245 240 228 219 221 216 211 211 208 208 208 209 212 223 236 254 267 276 283 282 284 286 289 291 292 302
352 345 341 335 326 320 309 295 287 282 272 267 256 251 259 258 240 228 203 205 232 213 209 207 204 217 213 208 206 212 223 237 247 269 286 290 290 291 299 305 304 308 320
350 347 340 337 325 319 318 305 290 284 274 262 256 253 251 240 232 217 206 215 213 203 205 201 212 209 209 210 210 214 230 235 255 271 282 290 294 297 301 310 315 322 334
356 349 347 341 333 324 322 317 299 286 277 262 244 245 237 230 229 217 206 200 201 199 192 198 199 205 207 207 211 222 231 244 266 279 288 294 297 300 308 314 320 328 345
2 353 351 349 340 334 330 324 309 291 275 259 250 239 227 217 212 203 191 192 197 191 194 195 198 202 206 214 220 231 250 266 269 274 287 296 292 297 305 308 315 320 327
2 2 3 357 353 346 340 339 320 297 262 244 246 224 215 215 207 192 189 190 189 186 187 190 196 198 201 214 229 241 252 260 266 282 287 289 290 292 298 303 310 313 315
7 9 10 7 360 1 10 10 347 311 267 251 208 206 211 188 187 181 190 180 176 176 179 186 196 201 210 224 236 246 251 244 253 267 273 282 286 288 292 294 300 302 307
6 3 14 15 12 12 20 31 37 72 90 137 150 153 147 163 173 170 171 169 167 170 168 184 201 204 220 237 245 242 233 242 251 260 270 278 282 284 285 285 283 286 292
3 8 6 17 19 20 28 32 54 67 78 71 86 116 128 130 140 150 152 155 158 162 166 189 207 215 231 238 244 247 253 263 274 278 279 278 284 288 289 284 271 268 277
13 12 11 9 22 23 28 46 50 56 66 75 63 73 92 92 97 114 126 136 142 147 151 172 227 238 257 271 269 268 273 275 272 278 283 297 299 299 291 287 275 272 270
14 21 22 20 16 29 32 36 43 48 50 52 50 58 66 76 76 86 92 100 107 113 139 175 282 283 264 260 263 262 272 282 291 302 305 308 310 310 308 310 304 283 271
12 22 28 28 21 18 39 44 41 41 44 44 44 46 49 55 58 62 74 78 80 88 113 176 225 232 232 209 218 262 290 294 288 287 293 298 301 303 301 305 310 285 280
16 19 28 36 32 19 24 41 48 46 43 44 40 40 43 45 44 51 56 57 66 75 85 119 157 174 175 159 214 267 285 292 299 308 315 304 300 295 299 286 292 290 290
15 16 20 28 33 36 27 33 44 44 41 39 37 36 39 42 43 45 51 54 67 81 100 122 109 126 204 254 259 268 276 286 295 305 298 298 303 310 304 293 296 307 306
18 16 15 20 24 30 32 47 39 37 35 34 34 34 34 34 35 39 42 37 44 41 46 50 30 302 268 260 259 266 275 279 288 287 289 295 303 305 307 300 296 299 304
15 19 14 15 20 21 28 37 27 28 24 20 22 25 27 28 32 38 39 32 35 28 15 2 324 293 282 275 275 274 274 281 282 281 277 281 289 299 299 303 299 301 302
7 12 15 16 13 16 26 29 27 13 9 6 11 18 23 25 26 26 25 27 22 16 11 346 319 301 292 292 289 286 285 282 281 281 278 278 284 290 281 286 296 301 292
15 14 14 15 21 24 17 16 12 6 3 4 6 9 9 11 15 15 14 13 10 1 357 334 315 305 303 298 298 297 292 287 285 282 272 271 277 286 290 285 281 284 291
15 16 15 15 17 17 21 22 15 11 8 3 2 359 358 359 359 356 357 359 356 349 342 334 326 294 284 284 288 288 284 288 288 283 284 273 273 273 272 277 277 283 285
10 13 15 15 14 10 9 7 9 10 7 2 356 354 355 357 357 354 350 345 345 342 334 323 309 304 289 276 279 284 289 282 278 290 286 282 283 277 263 259 272 273 278
6 7 6 9 5 2 3 1 0 3 1 1 358 356 355 354 352 350 347 343 340 339 337 329 320 309 300 280 264 270 275 281 282 279 270 273 279 282 274 257 248 272 257
1 359 357 1 4 360 353 348 352 355 353 354 355 354 352 350 349 347 347 345 343 340 337 331 326 320 309 294 276 268 266 270 273 270 265 262 261 264 259 259 257 256 268
353 350 351 354 359 356 351 348 348 350 348 348 350 349 349 347 345 345 344 343 341 340 339 334 330 326 317 299 277 268 267 270 264 265 269 272 263 269 263 246 246 250 254
345 346 347 348 352 349 344 346 344 346 345 346 347 346 345 344 343 343 344 344 342 341 338 334 331 325 316 307 290 273 265 265 260 256 259 262 265 269 266 260 239 240 246